Location: Unspecified
(0.0000°N, 0.0000°E)
Time: 05:03:54
(UTC+00:00)

BEESAT 2 - Visible Passes

Search period start: 09 July 2020 00:00
Search period end: 19 July 2020 00:00
Orbit: 491 x 535 km, 64.9° (Epoch: 08 July)

Date Brightness Start Highest point End Pass type
(mag) Time Alt. Az. Time Alt. Az. Time Alt. Az.
12 Jul ? 18:56:33 10° S 18:59:47 26° ESE 19:03:02 10° NE visible
13 Jul ? 18:39:56 10° S 18:43:10 26° ESE 18:46:26 10° NE visible
17 Jul ? 05:41:49 10° N 05:45:08 26° ENE 05:48:25 10° SE visible
18 Jul ? 05:25:12 10° N 05:28:31 26° ENE 05:31:48 10° SE visible
